Date,TemperatureHighF,TemperatureAvgF,TemperatureLowF,DewpointHighF,DewpointAvgF,DewpointLowF,HumidityHigh,HumidityAvg,HumidityLow,PressureMaxIn,PressureMinIn,WindSpeedMaxMPH,WindSpeedAvgMPH,GustSpeedMaxMPH,PrecipitationSumIn
2013-1-1,47.7,43.5,40.3,43.5,39.8,38.1,98,87,78,30.19,29.64,26,10,28,0.06
2013-1-2,50.9,48.3,42.3,50.6,47.4,39.0,99,97,87,30.43,30.18,24,11,24,0.03
2013-1-3,51.1,49.6,48.2,50.6,49.3,47.9,99,99,99,30.68,30.43,20,12,20,0.02
2013-1-4,51.1,49.3,47.7,50.8,48.9,47.1,99,99,98,30.68,30.58,22,11,22,0.00
2013-1-5,51.4,49.9,48.7,50.7,49.5,48.5,99,99,97,30.59,30.50,22,12,22,0.00
2013-1-6,49.5,48.6,47.1,49.2,48.3,46.9,99,99,99,30.51,30.33,22,11,22,0.08
2013-1-7,49.6,48.4,46.0,49.2,47.9,45.8,99,98,94,30.33,30.21,25,13,25,0.00
2013-1-8,52.0,50.3,48.0,51.7,50.1,47.8,99,99,99,30.22,30.17,26,11,26,0.20
2013-1-9,48.0,44.9,41.2,47.8,44.6,40.9,99,99,99,30.20,30.04,13,4,13,0.01
2013-1-10,48.0,43.7,37.8,47.8,42.7,37.5,99,97,90,30.11,29.96,28,8,29,0.14
2013-1-11,50.4,45.0,40.5,50.1,44.0,39.2,99,96,90,30.11,29.69,20,7,20,0.10
2013-1-12,46.8,43.8,42.3,46.5,43.3,41.7,99,98,91,29.84,29.50,23,5,25,0.19
2013-1-13,42.8,38.7,34.3,42.0,37.0,33.6,99,94,82,30.17,29.84,18,5,18,0.01
2013-1-14,46.2,42.5,38.7,43.5,39.8,34.7,96,90,78,30.11,29.85,28,12,28,0.20
2013-1-15,46.0,41.4,39.2,39.2,36.1,33.4,89,81,76,29.95,29.69,27,8,27,0.02
2013-1-16,43.9,40.8,38.7,40.0,36.9,32.3,95,86,77,29.94,29.63,20,6,20,0.09
2013-1-17,43.9,41.7,39.4,42.3,39.0,33.1,97,90,78,29.97,29.58,36,15,36,0.24
2013-1-18,44.1,41.3,38.3,43.8,41.1,38.0,99,99,97,29.58,29.25,36,9,37,0.72
2013-1-19,40.6,35.9,31.6,40.4,35.5,30.9,99,98,97,29.47,29.25,18,6,18,0.00
2013-1-20,37.8,31.0,27.9,32.3,28.3,25.5,98,89,78,29.47,29.26,13,5,15,0.00
2013-1-21,40.6,33.3,28.8,39.7,31.7,26.5,97,94,90,29.40,29.24,13,3,13,0.19
2013-1-22,43.7,36.3,32.7,43.4,35.7,32.0,99,97,95,29.61,29.30,18,5,18,0.04
2013-1-23,42.8,37.3,33.4,40.1,35.2,31.4,98,92,87,29.72,29.59,17,6,18,0.00
2013-1-24,41.7,37.5,34.0,39.4,36.0,32.7,98,94,88,30.04,29.71,14,5,14,0.00
2013-1-25,50.0,43.8,39.9,49.7,42.2,36.5,99,94,84,29.99,29.42,40,19,40,0.56
2013-1-26,51.4,46.3,38.5,51.0,44.1,35.8,99,92,86,29.91,29.42,43,20,43,0.16
2013-1-27,52.0,45.1,39.9,51.7,41.4,36.3,99,87,74,29.71,29.33,52,22,52,0.23
2013-1-28,51.3,46.2,37.9,50.8,44.7,35.4,99,95,88,29.81,29.57,46,23,50,0.30
2013-1-29,52.9,52.1,49.5,52.4,51.8,49.2,99,99,99,29.68,29.54,44,28,44,0.76
2013-1-30,50.5,47.7,44.1,50.3,45.7,40.6,99,93,80,30.08,29.56,36,18,36,0.06
2013-1-31,50.4,48.1,44.2,49.0,45.3,41.9,99,90,81,30.04,29.87,45,22,45,0.19